DELTA 1 DEB, 9977

Orbit data source: Space-Track

DELTA 1 DEB, 9977 is space debris in SSO originally from a launch on Tue, 06 Nov 1973 UTC launched from the Air Force Western Test Range (AFWTR). Debris objects in space refer to the collection of defunct objects orbiting the Earth. Examples of debris include non-operational satellites, rocket bodies, and fragments generated from explosions, collisions, or faulty payload assembly.

Loading next visibility...
Identifier
9977, 1973-086GG
Orbit
SSO
Country
Flag of USUS
Related business
Manufacturer
Unknown
Mission
Spacecraft
Bus & Motor
Unknown
Mass
Unknown
Launch date (UTC)
1973-11-06 (52 years ago)
Launch vehicle
Unknown
Launch site
Air Force Western Test Range (AFWTR)
Object type
Payload
Rocket body
Debris
Shape & HBR
Unknown shape, 0.1 m
Radar Cross Section
Small (<0.1 m²)

Expand to show TLE details & history
Last TLE update: 1 day ago

TLE from 1 day ago
0 DELTA 1 DEB
1 09977U 73086GG  25353.16708111  .00000195  00000-0  14814-2 0  9994
2 09977 101.8909  74.7643 0078375 174.2793 216.2492 12.54263754300981
Epoch: 2025-12-19T04:00Z
TLE epoch observation values (Epoch: 2025-12-19T04:00:35.807Z)
Latitude
29.34057°
Longitude
-80.16118°
Altitude
1,499.704 km
Speed
7.094 km/s
True Right ascension
04h 32m 00s
True Declination
29° 12' 28"
Sunlit
Object was in full shadow at epoch
Visualization orbit readout
Latitude
Unknown
Longitude
Unknown
Altitude
Unknown
Speed
Unknown
Apparent Right ascension
Unknown
Apparent Declination
Unknown
Sunlit
N/A
Visualization observer readout
Local Sidereal Time
07:47:40
Azimuth
Unknown
Elevation
Unknown
Doppler factor
Unknown
Orbital elements
Apogee altitude
1,505.569 km
Perigee altitude
1,382.953 km
Semi-major axis
7,822.398 km
Eccentricity
0.00784
Inclination
101.8909°
RAAN
74.7643°
Arg. of periapsis
174.2793°
True anomaly
215.72232°
Mean anomaly
216.2492°
Eccentric anomaly
215.98534°
Mean motion
3.13714 °/min
Orbital period
114.75 mins
BSTAR
0.0014814
Loading maneuver chart data...
Computing Atmospheric mass density...
Loading historical data...
Loading historical data...
Loading historical data...
Loading historical data...
Loading historical data...
Loading historical data...
Loading historical data...

Documentation

Showing up to 5 results
|